Orbital Elements at Epoch 2459000.5 (2020-May-31.0) TDB
Reference: JPL 19 (heliocentric ecliptic J2000)
Element | Value | Uncertainty (1-sigma) | Units |
e | .01841203533477678 | 3.7988e-08 | |
a | 3.025043930238 | 2.1659e-08 | au |
q | 2.969346714505205 | 1.2039e-07 | au |
i | 1.804793327615293 | 5.8435e-06 | deg |
node | 18.33747780411221 | 0.00012998 | deg |
peri | 232.9291977565072 | 0.00021651 | deg |
M | 289.4723719841352 | 0.00017485 | deg |
tp | 2459376.989382400238 (2021-Jun-11.48938240) | 0.00093372 | TDB |
period | 1921.745867216709 5.26 | 2.064e-05 5.651e-08 | d yr |
n | .1873296600457338 | 2.0119e-09 | deg/d |
Q | 3.080741145970794 | 2.2058e-08 | au |
|
| | Orbit Determination Parameters
Additional Information
|